Location: Córrego Montividiu
(13.2496°S, 48.8603°W)
Time: 11:32:02
(UTC+00:00)

ARIANE 5 R/B - Pass Details

Date: 11 March 2026
Orbit: 292 x 32230 km, 1.9° (Epoch: 22 April)

Event Time Altitude Azimuth Distance (km) Brightness Sun altitude
Rises 21:38:43 0° 279° (W) 12,209 10.7 -2.5°
Reaches altitude 10° 21:54:52 10° 289° (WNW) 6,366 8.4 -6.4°
Maximum altitude 22:05:21 23° 336° (NNW) 2,179 5.1 -8.9°
Drops below altitude 10° 22:08:51 10° 31° (NNE) 1,959 4.3 -9.8°
Enters shadow 22:09:35 - 41° (NE) 2,129 4.4 -9.9°
